Theta_e
307 307 307 307 307 307 307 307 307 307 307 307 307 307 308 308 308 302 297 301 299 296 295 298 298 294 294 292 289 294 295 300 300 298 298 298 294 300 302 304 300 299 301 301 300 296 294 312 311 305 307 308 310 312
307 308 307 308 307 307 307 306 307 306 306 306 307 307 308 308 308 306 297 302 304 297 295 299 301 302 300 299 294 294 292 298 299 297 298 299 299 298 298 299 309 301 306 303 302 299 307 311 310 313 311 311 310 313
307 307 307 307 307 307 307 306 306 306 306 306 307 307 307 307 307 306 299 297 299 294 294 291 295 300 301 302 301 292 295 298 300 299 298 301 300 300 296 300 304 310 312 304 305 305 309 310 311 312 312 311 313 314
308 307 307 306 307 307 307 306 306 306 306 306 307 307 307 307 307 306 300 297 300 296 290 291 301 299 303 300 300 299 297 299 300 300 297 299 299 302 299 301 301 308 311 307 305 310 310 308 310 311 311 311 312 313
307 307 307 306 306 306 306 306 305 305 306 306 306 306 307 307 308 304 299 298 302 297 289 290 298 301 300 299 299 299 298 297 298 295 295 296 300 299 298 303 301 304 309 305 301 310 307 307 309 311 308 309 310 310
307 306 307 306 306 306 306 306 305 305 305 306 306 306 307 307 307 299 298 301 304 303 294 287 296 298 298 298 297 296 297 297 297 294 295 297 302 302 296 296 303 304 311 312 309 312 310 310 311 312 309 310 309 308
307 307 307 306 306 306 306 306 305 305 305 306 306 306 307 308 300 295 295 301 303 301 294 292 291 297 299 297 297 295 295 297 295 293 294 293 296 299 296 294 299 304 308 309 311 309 305 308 306 307 308 308 308 307
307 307 306 306 305 306 306 306 305 305 305 305 306 307 307 307 304 295 300 305 303 296 295 289 289 292 296 292 292 296 294 295 295 294 294 294 295 298 294 297 300 302 305 305 305 307 306 306 305 305 306 305 304 304
306 306 305 305 305 306 305 305 304 305 304 305 306 306 300 297 293 296 309 307 300 296 291 291 289 288 296 292 294 296 298 292 296 291 293 299 296 292 295 296 299 302 300 301 304 305 305 304 304 305 305 305 303 303
305 305 305 305 305 305 305 305 304 305 305 306 299 297 291 298 310 306 297 293 293 295 293 289 292 289 292 294 293 296 295 293 290 293 300 300 299 299 300 301 302 303 304 303 301 301 302 301 302 303 303 304 304 304
305 305 305 305 305 306 306 305 304 305 302 295 294 295 300 306 296 295 292 292 292 290 292 293 291 289 295 293 293 296 292 292 289 293 297 299 298 300 304 304 305 305 306 305 305 304 304 304 304 304 303 304 306 307
305 305 306 306 306 306 306 306 305 300 301 300 298 300 298 295 290 287 285 290 290 289 292 292 292 292 296 297 295 296 293 292 288 295 297 295 301 305 305 306 306 306 308 308 308 307 308 309 308 306 306 306 307 308
305 306 306 306 306 306 306 305 306 306 305 301 295 291 290 286 278 284 284 286 287 292 293 293 292 293 295 295 294 294 292 291 297 296 296 298 303 306 306 306 306 307 309 308 309 309 310 310 310 309 309 310 310 309
306 306 306 306 306 306 306 305 305 304 300 294 289 282 285 283 289 289 291 293 295 296 295 295 294 294 295 293 293 292 293 295 293 291 294 300 302 304 306 307 304 304 306 307 308 309 309 308 308 309 309 308 307 307
306 306 306 306 307 306 306 305 305 302 295 289 290 285 289 293 294 297 299 296 297 296 295 294 295 294 292 292 294 292 291 291 294 294 299 301 301 302 302 304 303 304 304 304 305 306 307 307 306 305 307 307 307 307
305 304 304 306 306 305 305 302 299 298 293 291 293 291 293 292 292 294 295 294 298 295 294 294 291 290 291 290 291 292 292 291 294 297 299 300 300 301 302 304 304 305 304 303 303 304 305 304 305 306 306 306 308 308
303 298 306 306 305 305 304 298 297 295 292 292 292 296 295 293 292 294 295 296 298 295 292 292 289 288 291 288 291 295 294 296 299 299 299 298 299 301 303 304 304 304 304 304 304 304 304 305 303 303 303 304 307 307
298 301 307 306 304 301 297 297 295 294 291 294 293 294 294 295 294 294 296 296 296 293 293 292 294 291 290 290 292 296 298 296 298 299 299 300 301 302 303 302 303 304 303 303 303 304 303 302 302 301 301 304 306 311
300 301 306 306 304 298 293 295 295 291 293 292 293 293 294 294 294 296 295 296 294 295 293 292 291 289 293 296 294 294 294 296 297 298 300 302 302 303 304 304 304 303 303 302 302 303 302 302 301 301 302 302 303 304
305 305 307 307 305 294 293 290 296 291 289 291 293 292 293 291 292 292 294 295 292 292 291 291 292 293 294 295 296 297 298 299 298 297 297 299 302 304 303 303 303 303 302 302 302 300 300 300 301 302 303 303 303 304
304 303 306 303 298 297 294 292 291 291 291 289 291 291 291 293 292 292 292 294 291 288 289 293 295 297 297 298 299 299 298 299 298 299 298 299 305 304 304 303 303 302 300 303 301 301 298 298 298 299 299 301 303 304
301 307 300 301 295 294 291 296 290 292 289 289 290 291 290 290 290 290 292 291 290 291 292 294 294 295 296 297 298 301 305 307 305 304 301 304 304 305 305 305 303 302 301 299 298 297 296 297 298 299 298 298 299 299
304 301 297 296 291 288 287 294 293 291 287 289 292 289 288 293 292 292 289 290 291 293 295 297 300 300 299 301 304 305 307 307 304 304 304 305 307 303 299 297 295 294 293 294 294 295 295 296 298 298 299 299 299 299
304 295 291 291 291 287 292 290 291 291 291 290 287 287 290 292 295 293 291 293 296 299 301 302 305 305 306 306 305 305 306 305 303 303 304 305 301 293 292 291 292 292 292 292 292 294 295 296 295 296 296 297 296 296
291 292 291 287 291 289 290 291 291 291 289 291 288 288 291 295 291 292 294 297 299 301 303 305 304 304 303 303 304 303 304 302 302 299 295 299 296 293 291 291 292 292 292 292 291 292 293 294 294 294 295 294 294 294
286 290 289 291 289 289 290 289 289 290 292 290 290 294 292 294 293 292 294 299 300 300 302 302 302 301 301 301 301 299 298 300 295 293 292 292 293 292 290 289 289 290 292 291 291 292 293 293 293 294 294 295 295 298
289 292 294 294 293 293 293 296 295 292 292 291 291 295 294 291 293 296 300 301 303 305 304 303 303 302 300 298 298 297 295 294 294 294 293 292 293 293 293 290 289 291 292 293 292 292 293 292 292 293 293 296 296 296
296 298 295 296 295 297 295 295 295 293 295 296 296 293 292 293 294 299 300 302 302 301 301 302 301 299 296 294 294 295 295 294 295 294 293 293 292 291 292 292 292 292 291 291 292 293 292 292 292 291 291 294 294 295
297 301 300 296 297 296 294 293 293 294 296 296 294 294 296 299 301 301 301 300 299 299 296 296 296 295 295 295 294 293 293 293 293 290 289 289 289 290 291 291 291 290 290 290 293 293 293 292 291 291 291 291 293 294
297 300 298 298 296 294 297 296 296 297 300 300 300 299 299 300 302 302 300 299 297 295 294 294 294 294 293 292 292 293 293 292 292 290 288 288 288 289 290 289 289 289 290 292 291 291 292 291 290 290 291 290 290 289
301 302 301 298 296 299 301 303 301 299 299 300 300 300 298 299 301 301 300 298 297 296 295 294 293 293 292 292 291 290 289 291 290 290 290 289 289 289 289 289 288 289 290 291 290 289 289 289 289 289 289 290 290 290
304 302 300 297 298 303 306 303 301 301 302 302 302 305 306 305 301 300 302 301 298 295 295 293 292 293 293 292 292 291 291 290 291 290 290 290 289 289 289 289 289 290 289 289 289 288 288 288 288 288 287 287 288 288
302 303 304 303 300 300 301 301 300 302 304 303 303 305 305 301 296 303 308 305 301 295 292 293 294 292 292 291 291 290 291 290 290 290 290 290 290 289 288 288 289 289 287 286 286 285 284 284 285 284 284 284 284 285
Wind_Speed
22 22 21 21 21 19 19 19 16 16 15 16 15 15 12 12 11 2 4 4 3 4 8 11 9 5 5 2 2 7 7 3 3 5 2 3 2 4 3 6 6 3 2 3 2 5 3 15 5 7 4 5 2 5
20 21 20 20 19 18 17 17 17 15 16 17 14 13 13 13 9 3 4 3 2 5 8 7 15 19 20 21 3 4 4 3 2 3 2 0 3 3 4 4 3 5 1 6 2 4 4 6 8 5 2 14 5 14
19 20 19 17 17 17 17 15 15 12 12 14 12 10 9 9 9 6 3 2 2 3 7 2 10 6 9 18 12 4 3 2 3 2 3 1 3 3 2 3 3 3 6 5 5 4 7 6 7 5 5 9 7 7
20 19 17 16 17 15 12 12 13 12 11 10 9 10 11 11 12 6 3 2 1 3 4 8 4 8 5 7 11 11 4 2 2 2 2 2 3 2 4 2 1 3 5 8 6 3 2 12 10 4 7 10 14 12
18 18 16 15 15 13 13 13 11 10 10 9 8 11 10 9 10 4 3 5 6 3 4 8 14 7 6 7 8 7 3 2 1 1 2 3 2 3 2 2 5 4 5 8 7 6 11 3 6 6 16 11 12 15
17 16 14 15 13 14 11 11 10 8 9 9 8 8 8 9 4 2 2 1 5 3 3 5 5 6 2 5 5 5 4 3 1 3 3 3 4 4 4 3 6 8 3 8 9 4 8 8 8 12 17 14 12 13
17 11 11 11 10 11 10 9 7 6 7 7 7 9 7 9 1 3 2 1 4 3 2 5 6 6 4 3 2 1 0 2 3 2 1 2 3 4 5 4 8 6 15 10 6 7 14 8 4 6 10 7 6 6
14 6 6 7 5 7 6 5 5 4 4 4 6 8 8 8 5 5 4 13 4 1 1 3 6 6 1 1 2 2 1 1 1 1 2 3 6 4 6 7 8 7 15 16 14 11 6 5 5 7 7 8 10 7
9 4 3 2 3 6 2 2 1 5 2 5 7 8 3 1 2 4 1 8 1 3 2 2 3 4 4 2 1 1 2 2 1 3 4 4 5 7 3 4 7 10 7 5 7 10 11 12 8 8 8 9 7 7
5 3 0 2 4 1 1 4 3 3 2 5 3 1 3 3 9 5 3 1 1 2 1 4 2 4 1 2 2 0 2 2 3 2 4 4 4 1 3 4 5 8 8 6 8 9 9 8 8 8 7 6 5 6
4 3 2 2 1 3 4 5 2 2 5 2 2 2 3 9 3 2 2 2 1 3 3 5 4 3 2 2 2 1 1 0 4 2 6 3 3 5 8 7 6 7 7 8 7 6 7 6 6 6 7 7 6 7
6 5 5 3 6 3 7 4 3 2 1 2 2 3 3 3 2 1 3 3 3 4 3 3 4 5 3 0 2 5 2 1 4 1 6 3 2 4 7 7 7 8 8 9 8 7 7 7 6 4 4 5 6 7
8 8 7 7 3 5 6 4 4 8 3 2 2 3 2 2 6 0 4 3 3 3 3 3 2 2 3 4 3 3 3 1 2 5 4 3 2 3 4 5 6 7 7 6 6 5 5 4 5 4 6 5 7 6
10 9 7 7 7 6 4 5 5 5 2 2 3 6 3 5 2 2 2 2 5 4 4 3 2 3 3 4 1 3 1 4 4 4 4 0 2 3 4 3 4 4 5 4 4 4 3 4 4 5 5 5 6 6
12 11 9 9 7 4 3 4 4 2 1 2 2 4 3 3 3 3 3 5 4 4 3 3 4 3 4 4 3 2 5 6 5 3 3 1 2 1 2 3 4 4 4 3 4 4 5 4 4 5 5 5 4 4
6 8 7 8 5 3 4 6 2 0 1 1 3 4 5 3 6 4 4 4 3 3 1 4 3 4 4 2 6 6 4 5 3 2 0 1 2 2 2 4 5 5 4 4 3 3 4 6 5 6 6 5 5 4
11 4 9 8 7 7 7 2 2 2 2 4 3 2 2 3 4 4 3 5 5 4 4 3 5 2 3 5 5 4 3 2 1 1 1 1 2 4 5 5 6 6 6 6 4 4 4 4 3 3 6 5 5 4
3 4 7 9 7 5 3 1 3 3 5 1 1 5 2 3 4 4 4 4 5 3 3 2 0 7 4 4 2 1 2 2 2 2 3 3 3 4 4 5 6 6 6 6 4 5 4 4 6 4 5 4 5 4
3 4 10 11 7 2 3 4 2 3 2 3 3 2 3 4 3 4 4 5 2 1 3 4 6 3 2 1 1 1 1 1 2 3 3 4 3 4 5 5 5 5 7 6 6 5 4 6 6 4 4 2 3 3
7 10 11 12 5 3 4 4 1 2 3 3 4 5 3 2 4 3 4 5 4 3 6 4 2 1 3 2 3 3 3 2 1 3 3 3 3 4 5 4 4 6 6 7 6 3 3 4 3 3 3 3 3 5
6 4 8 4 3 3 0 3 4 1 4 3 4 4 4 4 4 5 5 5 5 3 2 1 2 2 2 1 2 2 3 2 2 3 3 4 5 3 5 4 4 4 2 3 4 6 4 3 4 4 3 4 4 5
2 8 3 3 3 4 1 1 1 3 2 3 4 3 3 3 4 4 4 3 2 2 1 1 1 1 2 4 5 3 4 5 4 3 5 5 4 5 6 5 4 5 6 6 5 4 4 4 4 4 3 5 4 4
5 4 3 4 4 4 5 3 3 4 3 5 4 2 3 3 3 4 3 2 3 3 2 2 3 3 5 5 3 4 3 3 2 4 5 4 1 2 4 5 4 4 4 5 4 4 5 7 6 5 5 5 5 5
2 2 3 3 3 3 4 3 2 2 3 3 3 3 3 3 4 3 3 3 2 2 2 3 2 3 4 6 4 6 5 3 3 4 3 1 4 3 3 2 3 3 2 3 4 5 5 5 6 5 5 4 5 5
3 2 2 1 2 2 2 3 1 1 1 2 1 2 2 1 0 2 2 4 3 2 1 2 1 2 3 4 4 5 7 2 2 2 5 2 4 3 3 3 4 3 3 5 5 5 5 5 5 5 5 5 7 7
2 4 5 3 2 2 3 2 2 2 2 2 2 1 1 1 1 2 2 3 3 3 3 2 2 3 3 2 2 4 5 2 4 4 2 2 4 5 3 1 3 4 2 2 3 4 5 5 5 7 6 7 8 6
4 3 4 3 2 2 2 2 1 2 3 4 3 1 2 4 3 3 4 3 3 2 2 2 2 2 2 3 3 4 3 2 2 2 1 1 1 3 4 3 2 4 4 5 4 3 3 5 4 4 3 3 3 3
5 3 6 7 6 4 3 3 3 4 3 3 4 2 3 4 3 3 3 3 1 2 3 4 4 4 4 3 2 4 5 5 4 3 3 4 3 2 1 1 4 8 4 4 3 2 3 3 4 3 3 2 1 1
5 4 4 3 2 3 2 1 2 3 4 3 4 2 1 2 2 2 3 2 3 6 5 5 4 4 4 3 4 3 3 3 3 3 2 3 4 4 3 4 5 4 4 3 6 6 6 4 5 4 5 4 2 1
4 3 3 4 2 2 3 3 2 2 2 3 3 3 3 4 4 2 2 4 5 5 3 3 2 4 5 4 4 6 5 4 4 2 2 4 4 4 4 4 5 5 4 4 5 5 9 6 7 6 7 5 5 4
3 5 6 3 2 3 2 3 1 1 2 4 3 4 4 0 4 7 7 5 4 5 6 6 6 5 5 5 4 4 5 5 7 7 6 3 4 4 5 5 4 4 4 5 5 5 5 5 5 5 7 8 9 9
3 1 3 3 4 5 4 1 1 2 2 4 4 3 5 6 6 7 9 7 7 7 6 5 5 5 6 4 4 4 4 3 6 6 8 5 5 4 4 4 4 4 5 5 5 5 6 5 4 5 5 6 6 8
0 3 2 2 3 3 2 1 2 4 6 4 6 6 4 3 2 3 5 6 4 3 3 4 4 5 7 7 8 6 7 5 9 12 14 10 9 8 5 5 6 7 8 7 7 7 7 8 5 6 7 7 7 7
Wind_Direction
284 283 283 280 282 281 287 286 282 276 277 282 282 277 272 281 279 172 258 224 232 262 279 259 262 274 316 285 294 319 342 300 354 60 110 228 241 287 88 153 143 80 46 17 359 72 51 353 350 95 210 45 53 64
291 286 287 284 282 277 278 285 286 284 278 273 268 277 282 282 278 194 267 280 297 242 264 297 259 245 240 238 4 302 265 276 298 69 358 340 286 354 23 101 211 64 167 142 202 180 272 283 69 40 27 92 79 76
285 284 284 280 278 273 272 275 287 290 282 272 264 277 278 286 291 224 263 258 291 282 285 300 250 263 226 228 198 196 270 277 308 140 187 65 329 89 299 279 100 109 111 121 69 345 309 4 46 46 58 73 50 35
287 283 280 280 280 282 282 273 270 279 291 275 263 276 283 286 290 234 227 204 320 266 276 283 292 290 276 169 189 208 250 297 295 7 98 124 319 162 222 220 160 219 129 131 100 167 184 32 18 356 46 47 57 47
289 285 274 275 283 272 271 267 270 282 284 279 264 274 286 285 293 267 212 210 213 262 284 286 304 259 254 197 216 211 181 238 261 251 131 208 233 299 354 92 3 343 174 161 185 146 114 349 354 31 63 59 60 60
302 274 264 271 273 276 271 261 265 271 282 287 270 284 287 297 334 335 275 155 200 218 272 291 293 294 292 183 204 237 205 194 198 231 212 242 213 170 88 83 304 318 21 93 133 109 103 118 65 57 79 54 39 62
309 271 253 270 270 274 265 261 265 274 280 268 274 290 293 295 116 218 246 269 210 352 275 296 300 265 224 164 277 200 49 212 182 249 34 299 296 75 60 70 305 9 71 72 76 109 55 45 78 39 69 93 89 82
308 282 268 269 290 293 286 267 259 259 257 282 291 295 290 295 299 301 247 241 186 200 254 271 272 329 124 224 264 168 161 308 267 258 59 8 355 36 60 321 316 47 72 57 58 64 105 154 88 47 63 47 43 31
341 329 274 228 307 307 306 166 259 197 264 301 304 309 3 71 237 245 270 106 105 154 264 259 270 285 354 274 230 336 178 78 307 54 37 65 357 45 297 296 13 23 56 93 72 59 46 47 26 19 36 33 32 351
343 18 346 319 317 211 119 147 159 92 306 322 24 347 293 223 309 331 2 1 339 242 238 246 261 268 78 13 322 69 3 113 81 22 83 64 78 246 329 351 18 31 37 30 55 29 25 28 17 2 349 341 345 328
26 21 308 297 168 123 145 151 130 62 34 29 313 254 280 317 37 349 266 219 211 260 207 238 221 265 297 23 300 85 157 69 86 231 97 84 68 346 335 25 20 26 36 45 66 56 44 33 7 352 340 334 330 330
35 21 25 88 119 87 116 112 76 41 356 251 263 298 305 8 49 358 260 288 211 246 234 217 245 203 290 67 59 330 101 49 86 193 89 102 49 335 353 10 20 22 30 30 27 25 9 356 346 325 298 304 294 295
43 57 70 74 79 105 128 153 89 11 329 326 359 338 34 302 25 46 339 328 312 303 303 284 296 343 346 32 57 57 39 12 131 40 69 59 6 28 356 15 20 21 26 24 11 3 359 11 13 351 323 325 316 315
46 48 59 87 91 99 90 53 20 333 350 338 343 360 45 320 359 320 293 265 262 264 316 295 38 54 330 30 343 68 356 45 72 60 79 124 323 339 12 34 54 17 21 32 24 24 16 5 338 329 330 317 331 319
44 46 46 44 71 78 23 349 302 356 18 337 7 19 336 328 266 283 292 296 288 285 329 25 33 48 354 36 1 5 48 70 35 76 93 154 239 320 29 9 349 348 343 340 329 332 330 334 329 313 317 311 294 304
37 40 24 39 52 59 356 324 313 295 338 11 10 338 321 351 335 358 319 310 321 316 33 40 49 42 23 26 36 9 59 49 65 69 129 249 329 339 334 317 296 287 281 285 293 293 307 324 328 312 314 320 338 347
53 21 1 23 10 322 309 329 320 323 20 20 352 294 281 254 259 282 301 299 315 35 25 16 45 9 310 47 39 22 52 87 102 30 333 330 315 309 317 316 308 317 316 321 315 311 286 302 322 321 342 317 320 315
56 308 19 5 343 328 316 24 356 12 25 330 301 287 311 262 298 306 313 332 30 22 27 46 59 38 35 53 51 8 14 329 329 325 307 316 331 346 329 303 309 314 307 309 306 284 301 326 304 282 273 306 327 344
244 315 337 344 351 320 351 322 68 8 279 301 299 306 288 281 264 276 308 331 338 167 80 42 54 54 49 48 125 303 294 302 295 297 285 293 305 313 311 309 308 329 337 332 327 304 304 293 267 283 269 278 280 306
308 312 326 320 354 19 333 320 60 30 341 300 324 331 296 288 304 332 358 9 355 32 33 51 77 198 159 226 204 216 230 240 291 334 311 308 298 313 319 311 311 308 309 320 332 282 313 324 319 326 291 273 279 279
341 305 328 358 7 51 299 345 333 309 318 337 313 353 309 344 15 9 349 335 31 37 55 108 171 235 235 256 236 231 265 226 240 205 243 298 305 318 309 328 317 301 272 303 306 323 345 260 271 281 280 281 272 262
291 342 345 336 15 348 29 57 239 281 342 277 340 357 16 1 342 340 312 4 330 278 202 181 256 270 293 268 255 234 257 279 271 268 268 270 300 337 341 334 353 5 18 7 351 346 350 327 341 335 321 299 300 299
322 7 360 18 2 29 281 350 360 358 9 323 343 9 354 344 341 321 344 277 266 255 255 263 263 249 255 286 289 261 232 220 278 288 275 276 49 354 47 38 27 53 34 8 3 3 359 341 355 360 347 358 5 354
356 46 30 10 19 312 315 332 335 348 341 358 13 350 347 338 327 10 319 277 262 286 328 337 24 6 349 353 338 316 305 172 276 285 267 131 109 78 40 7 16 40 37 316 348 349 352 352 347 356 354 345 347 337
351 358 34 357 224 244 277 289 281 343 307 251 274 224 180 214 6 262 280 280 289 294 311 346 23 205 245 264 280 282 292 186 169 55 354 112 106 74 26 8 10 6 353 18 354 345 334 335 344 345 346 347 345 334
246 200 173 237 275 203 197 268 235 232 301 311 265 298 347 280 27 22 272 267 244 253 254 243 268 338 319 265 319 5 345 30 94 79 319 144 142 143 160 111 10 322 325 311 312 322 330 335 346 352 354 5 22 45
299 213 192 252 221 272 284 257 172 192 235 210 208 178 341 37 11 271 271 213 243 249 246 170 135 111 326 357 28 9 1 25 108 196 175 138 157 157 140 150 228 252 291 310 313 315 316 333 343 348 360 16 20 55
248 239 213 180 200 207 227 217 207 229 234 173 131 171 154 164 237 255 243 280 266 123 84 67 67 73 99 98 62 35 13 355 3 58 56 26 26 17 18 294 269 283 289 295 310 321 328 316 309 298 318 279 233 288
258 234 179 226 206 192 237 177 261 243 184 134 101 84 311 253 259 343 343 17 53 72 67 66 22 23 40 39 37 27 26 18 29 21 354 315 328 305 325 319 322 333 324 327 336 359 0 18 354 308 304 306 285 188
291 350 15 13 48 325 275 193 241 276 50 102 119 88 47 14 335 347 59 68 69 79 83 85 35 51 38 32 355 354 4 23 48 71 351 305 273 291 311 320 330 329 339 352 3 356 5 15 1 12 17 5 355 343
321 23 352 335 272 265 249 299 71 12 71 81 32 103 118 268 23 30 20 4 68 68 63 50 34 16 22 7 356 3 356 348 351 357 1 336 321 349 347 339 337 348 28 54 57 44 30 30 28 16 14 16 15 22
359 251 100 322 306 302 310 110 140 94 40 60 28 51 51 39 25 32 12 2 46 50 24 39 35 360 346 355 35 42 34 360 11 359 3 349 339 341 1 12 35 47 42 46 43 35 30 34 27 17 8 2 357 355
169 268 195 213 271 300 288 72 61 84 48 40 34 20 28 86 95 311 19 27 330 28 23 6 19 35 40 34 24 8 11 4 354 5 7 11 30 42 30 23 34 37 38 39 34 25 18 12 9 7 356 351 340 327